Location: Neuvy Saint Sepulchre
(46.5953°N, 1.8122°E)
Time: 11:39:19
(UTC+02:00)

ISS - Pass Details

Date: 25 April 2026
Orbit: 415 x 424 km, 51.6° (Epoch: 14 April)

Event Time Altitude Azimuth Distance (km) Brightness Sun altitude
Exits shadow 04:44:12 69° 197° (SSW) 451 -3.9 -18.7°
Maximum altitude 04:44:28 75° 150° (SSE) 437 -3.8 -18.7°
Drops below altitude 10° 04:47:50 10° 66° (ENE) 1,503 0.1 -18.3°
Sets 04:49:57 0° 64° (ENE) 2,371 1.4 -18.0°
